Tracking 20942 objects as of 10-Jul-2020
HD Live streaming from Space Station
objects crossing your sky now

ARIANE 5 DEB (SYLDA)

Track ARIANE 5 DEB (SYLDA) now!
10-day predictions


NORAD ID: 40877
Int'l Code: 2015-039D
Perigee: 239.3 km
Apogee: 26,599.4 km
Inclination: 4.8 °
Period: 461.8 minutes
Semi major axis: 19790 km
RCS: Unknown
Launch date: August 20, 2015
Source: France (FR)
Launch site: FRENCH GUIANA (FRGUI)

Note: This is SATELLITE DEBRIS
aabbcc
Your satellite tracking list
Your tracking list is empty




NASA's NSSDC Master Catalog

Two Line Element Set (TLE):
1 40877U 15039D   20192.17318543 +.00027901 +00000-0 +32367-2 0  9992
2 40877 004.7755 239.7334 6659854 259.4128 024.7490 03.11834453049822
Source of the keplerian elements: AFSPC